Weather History for Gainesville, GA

Change the Weather History Date:

Wednesday, October 19, 2011

  Actual Average Record
Temperature  
Mean Temperature 55 °F 61 °F  
Max Temperature 63 °F 71 °F 88 °F (1938)
Min Temperature 46 °F 51 °F 33 °F (1948)
Degree Days  
Heating Degree Days 10 5  
Month to date heating degree days 64  
Since 1 July heating degree days 77  
Cooling Degree Days 0 1  
Month to date cooling degree days 32  
Year to date cooling degree days 1573  
Growing Degree Days 5 (Base 50)    
Moisture  
Dew Point 53 °F    
Average Humidity 93    
Maximum Humidity 100    
Minimum Humidity 74    
Precipitation  
Precipitation 0.36 in 0.12 in 3.44 in (1937)
Month to date precipitation 2.74  
Year to date precipitation 43.67  
Sea Level Pressure  
Sea Level Pressure 29.53 in    
Wind  
Wind Speed 10 mph (West)    
Max Wind Speed 21 mph    
Max Gust Speed 31 mph    
Visibility 5 miles    
Events Rain    
T = Trace of Precipitation, MM = Missing Value Source: NWS Daily Summary

Daily Weather History Graph

Daily Weather History Graph

Search for Another Location

Airport:

Trip Planner

Search our weather history database for the weather conditions in past years. The results will help you decide how hot, cold, wet, or windy it might be!

Date:

Astronomy

Oct. 19, 2011 Rise Set
Actual Time 7:43 AM EDT 6:56 PM EDT
Civil Twilight 7:18 AM EDT 7:21 PM EDT
Nautical Twilight 6:49 AM EDT 7:50 PM EDT
Astronomical Twilight 6:19 AM EDT 8:20 PM EDT
Moon No Moon Rise 2:06 PM EDT (10/19)
Length of Visible Light 12h 03m
Length of Day
11h 12m
Waning Gibbous, 55% of the Moon is Illuminated
Oct 19
Waning Gibbous
Oct 19
Last Quarter
Oct 26
New
Nov 2
First Quarter
Nov 10
Full

Hourly Weather History & Observations

Time (EDT) Temp. Windchill Dew Point Humidity Pressure Visibility Wind Dir Wind Speed Gust Speed Precip Events Conditions
12:02 AM 64.4 °F - 64.4 °F 100% 29.61 in 2.0 mi ESE 6.9 mph - 0.00 in Rain Light Rain
12:13 AM 64.4 °F - 64.4 °F 100% 29.61 in 1.8 mi East 11.5 mph - 0.00 in Rain Light Rain
12:24 AM 64.4 °F - 64.4 °F 100% 29.61 in 2.0 mi East 12.7 mph - 0.00 in   Overcast
12:31 AM 64.4 °F - 62.6 °F 94% 29.60 in 2.5 mi East 8.1 mph - 0.00 in   Overcast
12:39 AM 64.4 °F - 64.4 °F 100% 29.60 in 1.8 mi East 10.4 mph - 0.00 in   Overcast
12:49 AM 64.4 °F - 64.4 °F 100% 29.59 in 2.5 mi East 8.1 mph - 0.00 in   Overcast
12:53 AM 64.0 °F - 63.0 °F 96% 29.55 in 3.0 mi East 11.5 mph - 0.00 in   Overcast
1:53 AM 63.0 °F - 62.1 °F 97% 29.52 in 4.0 mi East 8.1 mph - 0.02 in Rain Light Rain
2:15 AM 62.6 °F - 62.6 °F 100% 29.56 in 2.5 mi East 12.7 mph - 0.00 in Rain Light Rain
2:25 AM 62.6 °F - 62.6 °F 100% 29.55 in 3.0 mi East 11.5 mph - 0.00 in Rain Light Rain
2:51 AM 62.6 °F - 60.8 °F 94% 29.54 in 2.5 mi East 11.5 mph - 0.01 in Rain Light Rain
2:53 AM 62.1 °F - 61.0 °F 96% 29.49 in 2.5 mi East 11.5 mph - 0.01 in Rain Light Rain
3:01 AM 62.6 °F - 60.8 °F 94% 29.53 in 3.0 mi East 9.2 mph - 0.00 in   Overcast
3:53 AM 61.0 °F - 61.0 °F 100% 29.46 in 5.0 mi East 9.2 mph - 0.01 in Rain Light Rain
4:53 AM 61.0 °F - 60.1 °F 97% 29.44 in 3.0 mi East 6.9 mph - 0.00 in   Overcast
5:53 AM 60.1 °F - 60.1 °F 100% 29.43 in 3.0 mi East 10.4 mph - 0.01 in Rain Light Rain
5:59 AM 60.8 °F - 60.8 °F 100% 29.49 in 2.0 mi WSW 11.5 mph - 0.03 in Rain Light Rain
6:02 AM 60.8 °F - 60.8 °F 100% 29.48 in 1.5 mi West 9.2 mph - 0.08 in Rain Heavy Rain
6:13 AM 60.8 °F - 60.8 °F 100% 29.47 in 2.0 mi Calm Calm - 0.17 in Rain Rain
6:15 AM 60.8 °F - 60.8 °F 100% 29.47 in 3.0 mi SE 3.5 mph - 0.18 in Rain Rain
7:05 AM 60.8 °F - 60.8 °F 100% 29.47 in 6.0 mi Calm Calm - 0.01 in Rain Light Rain
7:14 AM 60.8 °F - 60.8 °F 100% 29.47 in 5.0 mi Calm Calm - 0.02 in Rain Light Rain
7:32 AM 60.8 °F - 60.8 °F 100% 29.46 in 3.0 mi NNE 3.5 mph - 0.03 in Rain Light Rain
7:38 AM 60.8 °F - 60.8 °F 100% 29.45 in 2.0 mi ENE 4.6 mph - 0.03 in Rain Light Rain
7:44 AM 60.8 °F - 59.0 °F 94% 29.45 in 3.0 mi ENE 3.5 mph - 0.03 in Rain Light Rain
7:53 AM 60.1 °F - 60.1 °F 100% 29.43 in 3.0 mi Calm Calm - 0.04 in   Overcast
8:01 AM 57.2 °F - 57.2 °F 100% 29.46 in 2.5 mi West 6.9 mph - 0.01 in Rain Light Rain
8:04 AM 57.2 °F - 57.2 °F 100% 29.45 in 1.8 mi WNW 5.8 mph - 0.03 in Rain Heavy Rain
8:14 AM 57.2 °F - 57.2 °F 100% 29.46 in 2.5 mi WSW 8.1 mph - 0.03 in Rain Light Rain
8:22 AM 57.2 °F - 57.2 °F 100% 29.45 in 3.0 mi West 5.8 mph - 0.03 in   Overcast
8:31 AM 57.2 °F - 55.4 °F 94% 29.47 in 2.0 mi West 15.0 mph - 0.03 in   Overcast
8:39 AM 55.4 °F - 55.4 °F 100% 29.46 in 1.8 mi West 12.7 mph 21.9 mph 0.03 in Rain Light Rain
8:42 AM 55.4 °F - 55.4 °F 100% 29.48 in 2.5 mi WSW 15.0 mph - 0.03 in Rain Light Rain
8:51 AM 53.6 °F - 53.6 °F 100% 29.47 in 4.0 mi West 10.4 mph 21.9 mph 0.05 in Rain Light Rain
8:53 AM 54.0 °F - 53.1 °F 97% 29.46 in 3.0 mi WSW 15.0 mph 21.9 mph 0.07 in Rain Rain
8:58 AM 53.6 °F - 53.6 °F 100% 29.47 in 1.0 mi West 12.7 mph 23.0 mph 0.10 in Rain Heavy Rain
9:06 AM 53.6 °F - 53.6 °F 100% 29.47 in 1.8 mi West 12.7 mph - 0.11 in Rain Light Rain
9:08 AM 53.6 °F - 53.6 °F 100% 29.48 in 3.0 mi West 13.8 mph - 0.11 in Rain Light Rain
9:43 AM 51.8 °F - 51.8 °F 100% 29.48 in 2.5 mi West 12.7 mph 21.9 mph 0.18 in Rain Rain
9:50 AM 51.8 °F - 51.8 °F 100% 29.48 in 5.0 mi West 13.8 mph 21.9 mph 0.19 in Rain Rain
9:53 AM 51.1 °F - 51.1 °F 100% 29.46 in 5.0 mi West 16.1 mph 23.0 mph 0.19 in Rain Rain
10:53 AM 48.9 °F - 48.0 °F 97% 29.47 in 10.0 mi West 16.1 mph 24.2 mph 0.01 in   Overcast
12:12 PM 48.2 °F - 46.4 °F 93% 29.49 in 10.0 mi West 19.6 mph 27.6 mph N/A   Overcast
12:28 PM 50.0 °F - 46.4 °F 87% 29.49 in 10.0 mi West 20.7 mph 27.6 mph N/A   Overcast
1:42 PM 51.8 °F - 44.6 °F 76% 29.50 in 10.0 mi West 11.5 mph 27.6 mph N/A   Overcast
1:53 PM 50.0 °F - 45.0 °F 83% 29.49 in 10.0 mi West 18.4 mph 26.5 mph N/A   Overcast
2:20 PM 46.4 °F 39.0 °F 44.6 °F 93% 29.51 in 10.0 mi West 19.6 mph 28.8 mph N/A   Overcast
2:23 PM 46.4 °F 39.2 °F 44.6 °F 93% 29.51 in 10.0 mi West 18.4 mph 31.1 mph N/A   Overcast
2:53 PM 48.0 °F - 44.1 °F 86% 29.50 in 10.0 mi West 18.4 mph 25.3 mph N/A   Overcast
3:06 PM 48.2 °F - 44.6 °F 87% 29.52 in 10.0 mi West 16.1 mph 26.5 mph N/A   Overcast
3:26 PM 48.2 °F - 42.8 °F 82% 29.53 in 10.0 mi West 13.8 mph 27.6 mph N/A   Overcast
3:53 PM 46.9 °F - 42.1 °F 83% 29.53 in 10.0 mi West 16.1 mph 29.9 mph N/A   Overcast
4:30 PM 46.4 °F 39.2 °F 41.0 °F 81% 29.56 in 10.0 mi West 18.4 mph 25.3 mph N/A   Overcast
4:53 PM 46.9 °F - 41.0 °F 80% 29.56 in 10.0 mi West 20.7 mph 29.9 mph N/A   Overcast
5:53 PM 46.9 °F - 39.9 °F 77% 29.58 in 10.0 mi West 15.0 mph 26.5 mph N/A   Overcast
6:53 PM 46.9 °F - 39.9 °F 77% 29.62 in 10.0 mi West 13.8 mph 23.0 mph N/A   Overcast
7:53 PM 46.9 °F - 39.9 °F 77% 29.65 in 10.0 mi West 18.4 mph 25.3 mph N/A   Overcast
8:53 PM 46.9 °F - 39.9 °F 77% 29.68 in 10.0 mi West 15.0 mph 26.5 mph N/A   Overcast
9:15 PM 46.4 °F 40.7 °F 39.2 °F 76% 29.69 in 10.0 mi West 12.7 mph 24.2 mph N/A   Overcast
9:53 PM 46.9 °F - 39.0 °F 74% 29.69 in 10.0 mi West 12.7 mph 25.3 mph N/A   Overcast
10:18 PM 46.4 °F 40.4 °F 39.2 °F 76% 29.70 in 10.0 mi West 13.8 mph 20.7 mph N/A   Overcast
10:53 PM 46.0 °F 39.9 °F 39.9 °F 79% 29.71 in 10.0 mi West 13.8 mph 23.0 mph 0.00 in   Overcast
11:16 PM 46.4 °F 40.4 °F 39.2 °F 76% 29.71 in 10.0 mi West 13.8 mph 21.9 mph N/A   Overcast
11:53 PM 46.0 °F 39.0 °F 39.9 °F 79% 29.71 in 10.0 mi West 17.3 mph 25.3 mph N/A   Overcast